Location: ??? ?????
(30.6482°N, 60.5850°E)
Time: 04:36:07
(UTC+00:00)

GPS 2-04 Rocket1 - Pass Details

Date: 09 April 2020
Orbit: 419 x 549 km, 35.6° (Epoch: 27 May)

Event Time Altitude Azimuth Distance (km) Brightness Sun altitude
Rises 15:10:02 0° 236° (SW) 2,574 6.9 -10.9°
Reaches altitude 10° 15:12:15 10° 231° (SW) 1,715 5.8 -11.4°
Maximum altitude 15:16:06 53° 154° (SSE) 647 2.9 -12.2°
Enters shadow 15:18:59 18° 82° (E) 1,364 4.3 -12.8°
